QPF
0.00 0.00 0.02 0.03 0.04 0.02 0.03 0.05 0.03 0.02 0.02 0.01 0.01 0.01 0.02 0.02 0.03 0.05 0.07 0.08 0.03 0.03 0.04 0.05 0.05 0.03 0.05 0.03 0.02 0.02 0.02 0.01 0.01 0.01 0.01 0.00 0.00 0.01 0.01 0.02 0.02 0.02 0.02 0.02 0.02 0.03 0.02 0.03 0.03
0.00 0.01 0.02 0.06 0.05 0.03 0.04 0.04 0.02 0.01 0.01 0.00 0.00 0.01 0.01 0.02 0.04 0.08 0.12 0.10 0.04 0.01 0.01 0.02 0.04 0.02 0.03 0.02 0.02 0.02 0.02 0.02 0.01 0.01 0.01 0.01 0.01 0.01 0.01 0.02 0.03 0.03 0.02 0.02 0.01 0.02 0.02 0.02 0.02
0.01 0.01 0.03 0.05 0.02 0.03 0.05 0.04 0.02 0.01 0.00 0.00 0.01 0.01 0.02 0.05 0.07 0.07 0.08 0.09 0.06 0.02 0.01 0.03 0.05 0.04 0.03 0.03 0.01 0.01 0.01 0.02 0.02 0.01 0.02 0.02 0.01 0.01 0.01 0.02 0.03 0.02 0.02 0.01 0.01 0.02 0.02 0.02 0.02
0.01 0.02 0.04 0.03 0.02 0.01 0.03 0.04 0.02 0.01 0.00 0.00 0.01 0.01 0.02 0.04 0.06 0.06 0.05 0.07 0.06 0.03 0.02 0.03 0.03 0.04 0.05 0.05 0.03 0.01 0.01 0.02 0.02 0.02 0.02 0.02 0.02 0.01 0.01 0.02 0.02 0.02 0.02 0.02 0.01 0.02 0.02 0.03 0.04
0.01 0.03 0.03 0.02 0.02 0.02 0.03 0.02 0.01 0.01 0.01 0.00 0.01 0.01 0.01 0.02 0.02 0.02 0.02 0.04 0.05 0.03 0.02 0.01 0.02 0.03 0.04 0.03 0.03 0.02 0.01 0.01 0.01 0.02 0.02 0.01 0.02 0.01 0.02 0.02 0.02 0.02 0.02 0.03 0.02 0.01 0.01 0.02 0.02
0.01 0.03 0.03 0.03 0.03 0.02 0.02 0.01 0.01 0.00 0.00 0.00 0.01 0.01 0.01 0.01 0.01 0.02 0.02 0.02 0.02 0.02 0.01 0.01 0.02 0.03 0.03 0.04 0.03 0.02 0.01 0.01 0.01 0.01 0.02 0.01 0.02 0.01 0.02 0.02 0.02 0.02 0.01 0.02 0.02 0.03 0.02 0.01 0.01
0.02 0.03 0.03 0.03 0.03 0.02 0.01 0.01 0.01 0.00 0.01 0.00 0.00 0.01 0.01 0.01 0.02 0.02 0.01 0.02 0.02 0.02 0.01 0.01 0.01 0.01 0.02 0.03 0.04 0.03 0.01 0.01 0.01 0.02 0.02 0.02 0.02 0.01 0.02 0.02 0.03 0.03 0.02 0.02 0.02 0.03 0.03 0.02 0.03
0.01 0.02 0.03 0.03 0.03 0.02 0.01 0.01 0.00 0.00 0.00 0.00 0.00 0.00 0.01 0.01 0.01 0.01 0.02 0.03 0.03 0.03 0.02 0.01 0.01 0.00 0.00 0.01 0.02 0.03 0.01 0.01 0.02 0.02 0.02 0.02 0.02 0.02 0.02 0.02 0.03 0.03 0.01 0.01 0.03 0.04 0.03 0.03 0.03
0.01 0.02 0.02 0.03 0.02 0.02 0.01 0.01 0.01 0.01 0.00 0.00 0.00 0.00 0.01 0.01 0.01 0.01 0.01 0.02 0.03 0.04 0.03 0.02 0.01 0.01 0.01 0.01 0.01 0.02 0.03 0.03 0.03 0.02 0.02 0.02 0.01 0.01 0.01 0.02 0.03 0.03 0.02 0.02 0.03 0.04 0.03 0.02 0.02
0.01 0.01 0.01 0.01 0.01 0.01 0.01 0.00 0.01 0.01 0.00 0.00 0.00 0.00 0.01 0.01 0.01 0.01 0.01 0.01 0.03 0.03 0.03 0.02 0.01 0.01 0.01 0.01 0.01 0.02 0.03 0.03 0.02 0.01 0.01 0.01 0.01 0.01 0.01 0.02 0.04 0.03 0.03 0.04 0.04 0.03 0.02 0.01 0.01
0.00 0.01 0.00 0.00 0.00 0.00 0.00 0.00 0.00 0.01 0.01 0.00 0.00 0.00 0.01 0.01 0.01 0.01 0.01 0.01 0.02 0.02 0.02 0.02 0.01 0.01 0.01 0.02 0.02 0.03 0.02 0.02 0.02 0.01 0.01 0.01 0.01 0.01 0.01 0.01 0.02 0.02 0.02 0.02 0.02 0.02 0.01 0.01 0.01
0.00 0.00 0.00 0.00 0.00 0.00 0.00 0.00 0.00 0.00 0.00 0.00 0.00 0.00 0.01 0.01 0.00 0.00 0.01 0.01 0.01 0.02 0.02 0.01 0.01 0.00 0.01 0.03 0.03 0.01 0.01 0.02 0.02 0.02 0.01 0.01 0.02 0.02 0.02 0.02 0.02 0.02 0.02 0.02 0.01 0.02 0.02 0.02 0.02
0.00 0.00 0.00 0.00 0.00 0.00 0.00 0.00 0.00 0.00 0.01 0.00 0.00 0.00 0.00 0.01 0.01 0.01 0.00 0.01 0.01 0.01 0.02 0.01 0.00 0.00 0.00 0.01 0.03 0.01 0.01 0.01 0.02 0.02 0.02 0.01 0.02 0.02 0.02 0.01 0.02 0.01 0.02 0.03 0.02 0.02 0.02 0.02 0.02
0.01 0.00 0.00 0.00 0.00 0.00 0.00 0.00 0.00 0.00 0.01 0.00 0.00 0.00 0.01 0.01 0.01 0.01 0.00 0.00 0.01 0.00 0.01 0.00 0.00 0.00 0.00 0.01 0.02 0.02 0.01 0.01 0.02 0.02 0.02 0.02 0.02 0.02 0.02 0.02 0.02 0.01 0.01 0.02 0.03 0.03 0.02 0.01 0.02
0.00 0.00 0.01 0.00 0.01 0.01 0.00 0.01 0.00 0.00 0.00 0.00 0.00 0.00 0.01 0.01 0.01 0.01 0.00 0.00 0.00 0.00 0.00 0.00 0.00 0.00 0.00 0.00 0.01 0.01 0.01 0.01 0.02 0.01 0.01 0.02 0.01 0.01 0.03 0.03 0.02 0.03 0.04 0.03 0.03 0.03 0.02 0.01 0.02
0.00 0.00 0.01 0.01 0.00 0.00 0.00 0.01 0.01 0.00 0.00 0.00 0.00 0.01 0.01 0.01 0.01 0.01 0.01 0.01 0.01 0.00 0.01 0.01 0.00 0.00 0.00 0.00 0.00 0.01 0.01 0.02 0.02 0.01 0.01 0.01 0.01 0.01 0.02 0.02 0.02 0.03 0.03 0.03 0.02 0.03 0.02 0.02 0.03
0.01 0.01 0.02 0.01 0.00 0.00 0.00 0.01 0.01 0.00 0.00 0.00 0.01 0.01 0.01 0.01 0.02 0.01 0.01 0.01 0.01 0.01 0.01 0.01 0.01 0.00 0.00 0.00 0.00 0.00 0.01 0.01 0.01 0.01 0.01 0.01 0.01 0.01 0.01 0.02 0.02 0.02 0.02 0.02 0.02 0.02 0.01 0.02 0.02
0.01 0.01 0.01 0.01 0.01 0.00 0.00 0.00 0.01 0.00 0.00 0.01 0.01 0.02 0.01 0.01 0.01 0.01 0.01 0.01 0.01 0.01 0.01 0.02 0.01 0.01 0.01 0.01 0.00 0.01 0.01 0.01 0.01 0.01 0.01 0.01 0.01 0.01 0.01 0.02 0.02 0.02 0.02 0.02 0.02 0.01 0.01 0.02 0.02
0.01 0.01 0.01 0.01 0.00 0.00 0.00 0.00 0.01 0.00 0.00 0.01 0.01 0.02 0.01 0.01 0.01 0.01 0.01 0.01 0.01 0.01 0.01 0.01 0.02 0.02 0.02 0.01 0.00 0.00 0.00 0.01 0.01 0.01 0.01 0.01 0.01 0.02 0.01 0.02 0.02 0.01 0.02 0.03 0.03 0.02 0.02 0.02 0.02
0.01 0.01 0.01 0.01 0.01 0.00 0.01 0.01 0.01 0.01 0.00 0.00 0.01 0.01 0.01 0.01 0.01 0.00 0.00 0.01 0.01 0.01 0.01 0.01 0.02 0.02 0.02 0.01 0.01 0.01 0.01 0.01 0.01 0.01 0.01 0.02 0.01 0.01 0.01 0.02 0.02 0.02 0.02 0.02 0.02 0.02 0.02 0.02 0.02
0.01 0.01 0.01 0.01 0.01 0.00 0.00 0.01 0.01 0.01 0.01 0.01 0.01 0.01 0.01 0.01 0.00 0.00 0.01 0.01 0.01 0.01 0.01 0.01 0.01 0.01 0.01 0.01 0.01 0.02 0.02 0.02 0.02 0.01 0.02 0.02 0.01 0.01 0.02 0.04 0.02 0.01 0.01 0.02 0.01 0.01 0.01 0.01 0.02
0.01 0.00 0.01 0.01 0.01 0.01 0.00 0.01 0.01 0.02 0.05 0.02 0.01 0.01 0.01 0.00 0.00 0.00 0.01 0.01 0.01 0.01 0.01 0.01 0.01 0.01 0.01 0.01 0.01 0.02 0.02 0.02 0.02 0.01 0.02 0.01 0.01 0.01 0.02 0.02 0.02 0.02 0.02 0.03 0.02 0.01 0.01 0.01 0.02
0.01 0.00 0.01 0.01 0.01 0.00 0.00 0.02 0.02 0.02 0.03 0.02 0.01 0.00 0.01 0.00 0.00 0.01 0.01 0.01 0.01 0.01 0.01 0.01 0.01 0.01 0.01 0.01 0.01 0.02 0.02 0.02 0.02 0.01 0.02 0.01 0.01 0.01 0.01 0.03 0.03 0.02 0.02 0.03 0.03 0.03 0.01 0.01 0.02
0.00 0.00 0.01 0.01 0.00 0.00 0.00 0.01 0.01 0.02 0.01 0.01 0.01 0.00 0.01 0.01 0.00 0.01 0.01 0.01 0.01 0.01 0.01 0.01 0.02 0.02 0.01 0.01 0.02 0.03 0.03 0.02 0.02 0.01 0.02 0.01 0.01 0.02 0.02 0.02 0.02 0.02 0.01 0.02 0.02 0.03 0.03 0.03 0.03
0.00 0.00 0.01 0.01 0.01 0.01 0.01 0.01 0.03 0.03 0.01 0.01 0.01 0.01 0.01 0.01 0.00 0.00 0.01 0.01 0.02 0.02 0.02 0.02 0.02 0.02 0.01 0.01 0.02 0.02 0.02 0.02 0.01 0.01 0.02 0.01 0.01 0.02 0.02 0.02 0.02 0.01 0.01 0.01 0.01 0.03 0.03 0.03 0.02
0.00 0.00 0.01 0.02 0.02 0.02 0.02 0.03 0.03 0.02 0.01 0.01 0.01 0.01 0.02 0.02 0.01 0.01 0.01 0.01 0.01 0.02 0.02 0.02 0.03 0.02 0.02 0.01 0.01 0.02 0.02 0.02 0.01 0.01 0.02 0.02 0.02 0.02 0.02 0.02 0.02 0.01 0.01 0.01 0.01 0.01 0.01 0.02 0.02
0.00 0.00 0.01 0.01 0.01 0.01 0.02 0.02 0.01 0.01 0.01 0.01 0.01 0.01 0.02 0.02 0.02 0.02 0.01 0.00 0.01 0.01 0.02 0.03 0.04 0.05 0.04 0.02 0.01 0.02 0.02 0.03 0.02 0.01 0.02 0.02 0.02 0.02 0.02 0.02 0.02 0.02 0.01 0.01 0.01 0.01 0.01 0.01 0.00
0.00 0.00 0.01 0.01 0.02 0.02 0.02 0.02 0.02 0.01 0.01 0.00 0.00 0.00 0.01 0.02 0.03 0.03 0.02 0.01 0.01 0.01 0.01 0.03 0.05 0.09 0.06 0.04 0.02 0.03 0.03 0.04 0.04 0.02 0.02 0.02 0.01 0.02 0.02 0.02 0.02 0.02 0.02 0.02 0.01 0.01 0.01 0.01 0.01
0.01 0.01 0.02 0.02 0.02 0.03 0.02 0.02 0.01 0.01 0.01 0.00 0.00 0.00 0.01 0.02 0.02 0.02 0.02 0.01 0.01 0.01 0.01 0.03 0.04 0.07 0.07 0.04 0.04 0.03 0.03 0.04 0.04 0.04 0.02 0.01 0.01 0.02 0.02 0.02 0.02 0.02 0.02 0.01 0.01 0.01 0.01 0.01 0.02
0.01 0.01 0.01 0.02 0.03 0.02 0.02 0.02 0.01 0.01 0.01 0.01 0.01 0.01 0.01 0.02 0.03 0.02 0.02 0.02 0.02 0.02 0.02 0.02 0.03 0.05 0.07 0.08 0.05 0.04 0.04 0.04 0.03 0.02 0.02 0.02 0.01 0.01 0.02 0.02 0.02 0.02 0.03 0.01 0.01 0.01 0.01 0.00 0.01
MSLP
1010.52 1011.57 1012.91 1014.39 1015.81 1017.03 1017.92 1018.43 1018.59 1018.47 1018.22 1017.98 1017.85 1017.87 1018.03 1018.26 1018.46 1018.50 1018.33 1017.92 1017.31 1016.57 1015.82 1015.13 1014.59 1014.21 1013.97 1013.83 1013.71 1013.56 1013.36 1013.11 1012.82 1012.56 1012.35 1012.22 1012.19 1012.22 1012.29 1012.38 1012.44 1012.48 1012.51 1012.54 1012.61 1012.74 1012.92 1013.16 1013.43
1011.07 1012.33 1013.80 1015.30 1016.66 1017.72 1018.40 1018.68 1018.61 1018.30 1017.92 1017.59 1017.41 1017.42 1017.58 1017.81 1018.01 1018.07 1017.92 1017.56 1017.01 1016.37 1015.71 1015.13 1014.68 1014.38 1014.19 1014.07 1013.96 1013.82 1013.62 1013.38 1013.11 1012.87 1012.68 1012.56 1012.51 1012.50 1012.52 1012.53 1012.52 1012.51 1012.49 1012.51 1012.59 1012.74 1012.95 1013.23 1013.54
1011.78 1013.18 1014.70 1016.15 1017.37 1018.23 1018.68 1018.73 1018.45 1018.00 1017.52 1017.14 1016.94 1016.95 1017.10 1017.32 1017.50 1017.54 1017.40 1017.07 1016.60 1016.05 1015.52 1015.07 1014.74 1014.53 1014.42 1014.34 1014.24 1014.11 1013.91 1013.67 1013.43 1013.19 1013.01 1012.89 1012.81 1012.77 1012.73 1012.68 1012.62 1012.56 1012.52 1012.53 1012.61 1012.78 1013.03 1013.34 1013.68
1012.60 1014.07 1015.56 1016.90 1017.93 1018.57 1018.79 1018.63 1018.21 1017.66 1017.14 1016.75 1016.56 1016.56 1016.70 1016.88 1017.01 1017.02 1016.86 1016.55 1016.14 1015.69 1015.29 1014.98 1014.79 1014.69 1014.64 1014.61 1014.53 1014.39 1014.19 1013.95 1013.70 1013.48 1013.30 1013.18 1013.09 1013.03 1012.96 1012.87 1012.78 1012.69 1012.63 1012.63 1012.73 1012.91 1013.17 1013.50 1013.85
1013.44 1014.90 1016.30 1017.47 1018.30 1018.72 1018.75 1018.45 1017.94 1017.37 1016.86 1016.51 1016.35 1016.35 1016.46 1016.58 1016.64 1016.57 1016.37 1016.06 1015.70 1015.35 1015.07 1014.90 1014.83 1014.83 1014.85 1014.84 1014.77 1014.63 1014.41 1014.15 1013.90 1013.68 1013.52 1013.41 1013.33 1013.27 1013.20 1013.11 1013.00 1012.91 1012.85 1012.86 1012.95 1013.13 1013.39 1013.71 1014.06
1014.19 1015.58 1016.84 1017.82 1018.45 1018.69 1018.58 1018.20 1017.69 1017.16 1016.73 1016.45 1016.34 1016.35 1016.41 1016.45 1016.41 1016.26 1016.00 1015.67 1015.35 1015.08 1014.90 1014.84 1014.87 1014.95 1015.01 1015.02 1014.94 1014.77 1014.53 1014.26 1014.01 1013.81 1013.67 1013.58 1013.54 1013.50 1013.46 1013.39 1013.30 1013.21 1013.16 1013.17 1013.25 1013.42 1013.66 1013.95 1014.26
1014.78 1016.03 1017.11 1017.90 1018.35 1018.46 1018.28 1017.91 1017.46 1017.04 1016.72 1016.55 1016.49 1016.51 1016.52 1016.48 1016.34 1016.09 1015.76 1015.41 1015.11 1014.89 1014.80 1014.82 1014.92 1015.04 1015.13 1015.13 1015.02 1014.83 1014.57 1014.29 1014.05 1013.87 1013.76 1013.73 1013.73 1013.74 1013.73 1013.69 1013.63 1013.56 1013.52 1013.52 1013.59 1013.73 1013.92 1014.17 1014.43
1015.13 1016.22 1017.11 1017.72 1018.02 1018.05 1017.86 1017.56 1017.23 1016.96 1016.79 1016.72 1016.73 1016.75 1016.72 1016.59 1016.35 1016.02 1015.63 1015.26 1014.97 1014.80 1014.76 1014.83 1014.97 1015.11 1015.19 1015.17 1015.04 1014.81 1014.54 1014.27 1014.05 1013.91 1013.86 1013.87 1013.92 1013.98 1014.01 1014.01 1013.97 1013.91 1013.87 1013.86 1013.91 1014.01 1014.16 1014.36 1014.57
1015.25 1016.15 1016.86 1017.31 1017.51 1017.50 1017.36 1017.16 1016.98 1016.87 1016.85 1016.90 1016.96 1016.98 1016.90 1016.71 1016.39 1015.99 1015.57 1015.20 1014.92 1014.79 1014.78 1014.88 1015.03 1015.16 1015.21 1015.17 1015.01 1014.78 1014.51 1014.26 1014.08 1013.99 1013.98 1014.04 1014.14 1014.23 1014.29 1014.30 1014.27 1014.22 1014.17 1014.15 1014.16 1014.23 1014.35 1014.50 1014.68
1015.19 1015.91 1016.43 1016.75 1016.89 1016.89 1016.82 1016.74 1016.71 1016.76 1016.87 1016.99 1017.09 1017.10 1016.99 1016.75 1016.39 1015.96 1015.54 1015.18 1014.94 1014.83 1014.85 1014.95 1015.09 1015.20 1015.23 1015.16 1014.99 1014.76 1014.52 1014.31 1014.17 1014.12 1014.16 1014.26 1014.38 1014.49 1014.55 1014.56 1014.52 1014.46 1014.40 1014.36 1014.36 1014.41 1014.50 1014.63 1014.79
1015.03 1015.58 1015.96 1016.18 1016.28 1016.30 1016.31 1016.35 1016.45 1016.61 1016.81 1016.98 1017.09 1017.08 1016.95 1016.68 1016.31 1015.89 1015.50 1015.18 1014.98 1014.91 1014.95 1015.05 1015.17 1015.25 1015.25 1015.16 1015.00 1014.79 1014.59 1014.43 1014.34 1014.34 1014.41 1014.52 1014.64 1014.74 1014.78 1014.78 1014.72 1014.64 1014.56 1014.51 1014.51 1014.55 1014.64 1014.78 1014.94
1014.91 1015.31 1015.57 1015.71 1015.79 1015.85 1015.93 1016.06 1016.25 1016.47 1016.70 1016.88 1016.97 1016.94 1016.77 1016.50 1016.15 1015.78 1015.44 1015.19 1015.05 1015.02 1015.07 1015.17 1015.26 1015.31 1015.30 1015.20 1015.06 1014.89 1014.74 1014.63 1014.59 1014.62 1014.70 1014.81 1014.91 1014.97 1014.99 1014.94 1014.86 1014.77 1014.69 1014.64 1014.64 1014.70 1014.82 1014.97 1015.16
1014.91 1015.19 1015.36 1015.45 1015.53 1015.62 1015.75 1015.94 1016.16 1016.40 1016.61 1016.75 1016.79 1016.71 1016.53 1016.26 1015.95 1015.65 1015.39 1015.22 1015.14 1015.14 1015.20 1015.29 1015.36 1015.39 1015.36 1015.28 1015.16 1015.04 1014.94 1014.88 1014.88 1014.93 1015.00 1015.08 1015.14 1015.17 1015.14 1015.07 1014.98 1014.88 1014.81 1014.78 1014.81 1014.90 1015.05 1015.24 1015.46
1015.10 1015.29 1015.40 1015.47 1015.55 1015.67 1015.84 1016.04 1016.27 1016.47 1016.61 1016.67 1016.63 1016.50 1016.29 1016.04 1015.78 1015.55 1015.38 1015.28 1015.26 1015.29 1015.35 1015.41 1015.46 1015.47 1015.43 1015.37 1015.30 1015.22 1015.17 1015.16 1015.17 1015.22 1015.27 1015.31 1015.32 1015.30 1015.24 1015.16 1015.07 1015.00 1014.96 1014.97 1015.04 1015.17 1015.36 1015.59 1015.84
1015.48 1015.61 1015.68 1015.75 1015.86 1016.01 1016.19 1016.40 1016.58 1016.71 1016.76 1016.71 1016.58 1016.38 1016.15 1015.90 1015.69 1015.53 1015.43 1015.40 1015.41 1015.45 1015.49 1015.53 1015.55 1015.54 1015.51 1015.47 1015.43 1015.41 1015.40 1015.41 1015.43 1015.45 1015.46 1015.45 1015.42 1015.37 1015.30 1015.23 1015.17 1015.14 1015.15 1015.22 1015.34 1015.51 1015.74 1015.99 1016.27
1015.96 1016.06 1016.13 1016.24 1016.38 1016.57 1016.78 1016.97 1017.10 1017.14 1017.07 1016.91 1016.68 1016.41 1016.14 1015.90 1015.73 1015.62 1015.57 1015.57 1015.59 1015.62 1015.63 1015.64 1015.62 1015.60 1015.57 1015.56 1015.56 1015.58 1015.60 1015.62 1015.63 1015.62 1015.58 1015.52 1015.45 1015.37 1015.31 1015.27 1015.27 1015.31 1015.39 1015.52 1015.69 1015.91 1016.15 1016.43 1016.72
1016.44 1016.54 1016.66 1016.82 1017.03 1017.28 1017.52 1017.70 1017.78 1017.72 1017.55 1017.27 1016.94 1016.59 1016.29 1016.05 1015.89 1015.81 1015.79 1015.79 1015.80 1015.80 1015.77 1015.73 1015.68 1015.64 1015.63 1015.64 1015.68 1015.73 1015.78 1015.80 1015.78 1015.73 1015.64 1015.53 1015.43 1015.35 1015.31 1015.32 1015.39 1015.50 1015.66 1015.86 1016.07 1016.31 1016.57 1016.85 1017.14
1016.83 1016.96 1017.14 1017.40 1017.71 1018.04 1018.33 1018.51 1018.54 1018.41 1018.13 1017.75 1017.32 1016.91 1016.56 1016.31 1016.16 1016.10 1016.07 1016.07 1016.04 1015.99 1015.91 1015.82 1015.73 1015.68 1015.68 1015.73 1015.80 1015.89 1015.95 1015.97 1015.93 1015.83 1015.69 1015.54 1015.41 1015.33 1015.32 1015.39 1015.53 1015.73 1015.96 1016.20 1016.45 1016.71 1016.96 1017.22 1017.50
1017.03 1017.23 1017.52 1017.91 1018.35 1018.78 1019.13 1019.33 1019.33 1019.13 1018.76 1018.28 1017.77 1017.31 1016.92 1016.66 1016.51 1016.43 1016.40 1016.37 1016.30 1016.19 1016.05 1015.91 1015.80 1015.75 1015.76 1015.84 1015.95 1016.07 1016.15 1016.16 1016.10 1015.96 1015.78 1015.59 1015.45 1015.37 1015.39 1015.51 1015.71 1015.97 1016.26 1016.54 1016.81 1017.06 1017.29 1017.54 1017.80
1017.06 1017.35 1017.78 1018.31 1018.90 1019.45 1019.88 1020.10 1020.08 1019.82 1019.37 1018.82 1018.24 1017.72 1017.31 1017.03 1016.87 1016.79 1016.75 1016.68 1016.57 1016.41 1016.22 1016.04 1015.90 1015.84 1015.87 1015.98 1016.14 1016.29 1016.39 1016.41 1016.33 1016.17 1015.95 1015.74 1015.58 1015.51 1015.55 1015.70 1015.94 1016.24 1016.55 1016.85 1017.11 1017.34 1017.55 1017.77 1018.02
1016.95 1017.36 1017.94 1018.65 1019.39 1020.06 1020.56 1020.81 1020.77 1020.45 1019.93 1019.30 1018.66 1018.10 1017.66 1017.38 1017.22 1017.15 1017.09 1017.00 1016.86 1016.65 1016.42 1016.20 1016.05 1015.99 1016.04 1016.18 1016.36 1016.55 1016.68 1016.71 1016.63 1016.46 1016.23 1016.00 1015.83 1015.75 1015.79 1015.95 1016.21 1016.51 1016.83 1017.11 1017.35 1017.55 1017.73 1017.92 1018.15
1016.80 1017.35 1018.11 1018.98 1019.87 1020.65 1021.20 1021.46 1021.39 1021.01 1020.42 1019.72 1019.02 1018.42 1017.97 1017.69 1017.54 1017.47 1017.42 1017.32 1017.16 1016.93 1016.67 1016.43 1016.25 1016.19 1016.25 1016.40 1016.62 1016.84 1016.99 1017.05 1016.99 1016.82 1016.59 1016.35 1016.17 1016.08 1016.12 1016.27 1016.50 1016.79 1017.07 1017.32 1017.52 1017.68 1017.82 1017.98 1018.19
1016.74 1017.43 1018.34 1019.37 1020.37 1021.23 1021.82 1022.07 1021.95 1021.50 1020.84 1020.07 1019.32 1018.69 1018.23 1017.95 1017.82 1017.78 1017.74 1017.65 1017.49 1017.25 1016.97 1016.70 1016.51 1016.43 1016.48 1016.64 1016.88 1017.11 1017.30 1017.38 1017.34 1017.20 1016.98 1016.76 1016.57 1016.47 1016.48 1016.60 1016.80 1017.03 1017.27 1017.47 1017.62 1017.73 1017.83 1017.95 1018.14
1016.83 1017.66 1018.71 1019.85 1020.94 1021.84 1022.43 1022.64 1022.46 1021.94 1021.19 1020.36 1019.56 1018.90 1018.44 1018.18 1018.07 1018.06 1018.05 1017.98 1017.83 1017.59 1017.29 1017.01 1016.79 1016.69 1016.72 1016.87 1017.10 1017.34 1017.55 1017.66 1017.65 1017.54 1017.35 1017.15 1016.97 1016.86 1016.85 1016.93 1017.07 1017.25 1017.42 1017.56 1017.66 1017.72 1017.78 1017.87 1018.03
1017.10 1018.05 1019.19 1020.41 1021.54 1022.44 1023.00 1023.15 1022.90 1022.30 1021.49 1020.60 1019.76 1019.09 1018.63 1018.38 1018.30 1018.32 1018.34 1018.30 1018.17 1017.93 1017.64 1017.33 1017.09 1016.95 1016.95 1017.06 1017.27 1017.50 1017.71 1017.84 1017.87 1017.79 1017.65 1017.47 1017.31 1017.20 1017.16 1017.21 1017.30 1017.42 1017.54 1017.62 1017.66 1017.68 1017.70 1017.76 1017.88
1017.51 1018.54 1019.75 1020.99 1022.11 1022.98 1023.48 1023.57 1023.25 1022.59 1021.72 1020.79 1019.94 1019.25 1018.80 1018.56 1018.51 1018.56 1018.61 1018.60 1018.49 1018.27 1017.97 1017.65 1017.38 1017.20 1017.15 1017.21 1017.37 1017.58 1017.78 1017.92 1017.97 1017.94 1017.83 1017.70 1017.56 1017.46 1017.41 1017.43 1017.48 1017.56 1017.62 1017.66 1017.67 1017.65 1017.64 1017.67 1017.75
1017.98 1019.05 1020.27 1021.48 1022.56 1023.37 1023.81 1023.83 1023.45 1022.76 1021.87 1020.93 1020.07 1019.40 1018.95 1018.73 1018.70 1018.76 1018.83 1018.85 1018.76 1018.55 1018.26 1017.94 1017.64 1017.42 1017.32 1017.33 1017.45 1017.61 1017.79 1017.93 1018.00 1017.99 1017.93 1017.83 1017.72 1017.64 1017.60 1017.60 1017.63 1017.67 1017.71 1017.72 1017.71 1017.68 1017.65 1017.65 1017.70
1018.40 1019.47 1020.64 1021.79 1022.80 1023.53 1023.90 1023.88 1023.48 1022.79 1021.91 1021.00 1020.18 1019.52 1019.09 1018.89 1018.85 1018.92 1019.00 1019.03 1018.96 1018.77 1018.50 1018.18 1017.87 1017.63 1017.49 1017.46 1017.52 1017.64 1017.78 1017.91 1017.99 1018.00 1017.97 1017.91 1017.83 1017.77 1017.74 1017.74 1017.77 1017.80 1017.83 1017.84 1017.83 1017.80 1017.76 1017.75 1017.77
1018.67 1019.69 1020.79 1021.85 1022.75 1023.41 1023.73 1023.69 1023.31 1022.66 1021.85 1021.01 1020.24 1019.63 1019.22 1019.01 1018.97 1019.03 1019.10 1019.13 1019.07 1018.91 1018.66 1018.37 1018.07 1017.83 1017.67 1017.61 1017.63 1017.71 1017.83 1017.93 1018.00 1018.03 1018.02 1017.98 1017.93 1017.89 1017.88 1017.89 1017.93 1017.97 1018.02 1018.04 1018.05 1018.03 1018.01 1017.99 1017.99
1018.75 1019.69 1020.68 1021.62 1022.42 1023.00 1023.29 1023.27 1022.95 1022.39 1021.68 1020.94 1020.26 1019.70 1019.32 1019.11 1019.05 1019.08 1019.13 1019.15 1019.10 1018.97 1018.76 1018.51 1018.25 1018.04 1017.89 1017.82 1017.82 1017.87 1017.96 1018.04 1018.10 1018.13 1018.13 1018.10 1018.07 1018.06 1018.06 1018.09 1018.14 1018.21 1018.27 1018.32 1018.36 1018.37 1018.37 1018.36 1018.35
Thickness
5811 5811 5807 5794 5767 5745 5741 5752 5762 5766 5769 5775 5778 5771 5760 5753 5747 5740 5761 5770 5769 5768 5767 5767 5766 5766 5766 5766 5766 5765 5765 5765 5764 5764 5764 5763 5763 5763 5763 5763 5762 5762 5761 5761 5761 5760 5760 5760 5760
5811 5810 5798 5778 5749 5729 5737 5755 5760 5768 5775 5779 5776 5770 5761 5755 5761 5760 5762 5766 5768 5767 5766 5765 5765 5764 5763 5763 5763 5762 5762 5762 5761 5761 5761 5760 5760 5760 5760 5760 5759 5759 5758 5758 5758 5757 5757 5757 5757
5811 5807 5784 5762 5745 5735 5742 5758 5765 5775 5782 5779 5769 5767 5760 5755 5761 5761 5764 5766 5766 5764 5763 5763 5762 5761 5761 5760 5760 5759 5759 5759 5758 5758 5757 5757 5757 5757 5756 5756 5756 5756 5755 5755 5755 5755 5754 5754 5754
5805 5791 5776 5754 5745 5753 5758 5763 5771 5772 5775 5775 5768 5757 5759 5765 5764 5765 5766 5766 5763 5762 5761 5760 5760 5759 5758 5757 5757 5757 5756 5756 5755 5754 5754 5753 5753 5753 5753 5753 5753 5752 5752 5752 5751 5751 5751 5751 5752
5798 5777 5756 5744 5748 5758 5767 5772 5774 5768 5766 5766 5764 5750 5750 5762 5767 5766 5765 5763 5760 5759 5758 5758 5757 5757 5756 5755 5754 5754 5753 5752 5752 5751 5750 5750 5749 5749 5749 5749 5749 5748 5748 5748 5748 5748 5748 5748 5748
5780 5766 5742 5735 5747 5759 5768 5775 5773 5765 5763 5764 5759 5749 5747 5760 5762 5762 5762 5761 5759 5757 5756 5755 5754 5754 5753 5752 5752 5751 5750 5749 5748 5748 5747 5746 5745 5745 5745 5745 5745 5744 5744 5744 5744 5744 5744 5744 5744
5772 5756 5744 5743 5745 5753 5765 5775 5769 5764 5761 5763 5763 5746 5746 5755 5760 5762 5760 5759 5757 5756 5754 5752 5751 5750 5750 5749 5749 5748 5747 5746 5745 5744 5743 5742 5741 5741 5741 5741 5740 5740 5740 5740 5740 5740 5740 5740 5740
5780 5759 5747 5744 5744 5750 5768 5775 5774 5768 5764 5772 5767 5747 5743 5754 5761 5760 5757 5756 5754 5752 5751 5750 5748 5747 5747 5746 5746 5745 5744 5743 5742 5741 5740 5739 5738 5737 5737 5736 5736 5736 5736 5736 5736 5736 5736 5736 5735
5784 5751 5739 5747 5749 5754 5769 5768 5771 5775 5769 5767 5766 5760 5759 5761 5760 5755 5751 5749 5748 5748 5748 5747 5746 5745 5744 5744 5743 5742 5741 5739 5738 5737 5736 5735 5734 5733 5733 5732 5732 5732 5732 5732 5732 5732 5731 5731 5731
5770 5745 5752 5763 5765 5763 5768 5767 5768 5763 5757 5755 5756 5760 5762 5759 5755 5749 5746 5743 5743 5743 5744 5745 5744 5743 5742 5741 5740 5739 5737 5736 5735 5733 5732 5731 5730 5729 5729 5728 5727 5728 5728 5727 5727 5727 5727 5727 5726
5770 5756 5764 5770 5774 5772 5767 5767 5770 5757 5748 5752 5751 5753 5755 5753 5750 5747 5746 5744 5744 5744 5744 5743 5742 5741 5740 5739 5737 5735 5734 5732 5731 5730 5729 5728 5726 5725 5725 5724 5723 5723 5723 5723 5722 5722 5722 5722 5721
5768 5768 5771 5771 5777 5773 5767 5766 5762 5759 5758 5764 5762 5759 5755 5751 5748 5747 5745 5744 5744 5743 5742 5742 5741 5739 5738 5737 5735 5733 5731 5730 5728 5727 5726 5725 5723 5722 5721 5720 5719 5719 5719 5718 5718 5718 5718 5718 5717
5765 5766 5773 5775 5774 5772 5768 5762 5759 5759 5765 5766 5762 5757 5753 5750 5748 5748 5748 5746 5744 5741 5741 5741 5740 5738 5736 5734 5733 5731 5729 5728 5726 5725 5723 5722 5721 5719 5718 5717 5716 5715 5715 5714 5714 5714 5714 5713 5713
5766 5768 5768 5769 5768 5769 5761 5757 5756 5756 5763 5760 5756 5752 5752 5750 5748 5746 5745 5743 5742 5741 5740 5739 5738 5736 5734 5732 5730 5729 5727 5726 5724 5723 5721 5720 5718 5716 5715 5714 5713 5712 5712 5711 5711 5710 5710 5709 5709
5770 5759 5757 5761 5762 5763 5758 5744 5749 5758 5760 5754 5752 5751 5750 5749 5748 5746 5745 5743 5742 5740 5739 5737 5736 5734 5732 5730 5728 5727 5725 5723 5722 5720 5719 5718 5716 5714 5713 5711 5710 5710 5709 5708 5707 5706 5706 5705 5705
5757 5745 5735 5750 5757 5759 5746 5728 5747 5757 5754 5747 5747 5748 5747 5747 5747 5746 5746 5744 5742 5740 5737 5736 5736 5732 5730 5728 5726 5725 5722 5721 5719 5718 5717 5715 5714 5712 5710 5709 5708 5707 5706 5705 5704 5702 5701 5700 5699
5734 5724 5726 5739 5754 5753 5742 5730 5745 5754 5751 5744 5744 5744 5744 5743 5744 5744 5745 5744 5741 5739 5736 5734 5733 5730 5728 5726 5724 5722 5720 5718 5717 5716 5714 5713 5711 5710 5709 5707 5705 5704 5703 5702 5701 5699 5698 5696 5695
5719 5722 5725 5729 5745 5745 5734 5731 5742 5748 5747 5743 5741 5741 5741 5741 5742 5744 5744 5743 5740 5738 5735 5732 5730 5728 5725 5723 5721 5718 5716 5715 5714 5713 5712 5711 5709 5708 5707 5704 5703 5702 5700 5699 5698 5696 5695 5693 5693
5732 5726 5722 5729 5745 5738 5729 5728 5736 5743 5742 5739 5738 5738 5738 5740 5743 5744 5742 5740 5737 5735 5732 5730 5727 5725 5722 5719 5716 5713 5710 5710 5710 5710 5709 5708 5707 5706 5705 5702 5701 5700 5698 5697 5696 5694 5692 5690 5690
5730 5722 5721 5729 5741 5735 5725 5726 5734 5740 5740 5741 5739 5738 5738 5738 5738 5738 5738 5737 5734 5732 5730 5728 5726 5723 5721 5718 5716 5713 5710 5708 5708 5707 5706 5706 5705 5704 5703 5701 5699 5698 5696 5695 5694 5693 5689 5688 5689
5726 5720 5720 5721 5729 5731 5722 5715 5724 5734 5739 5741 5741 5740 5740 5739 5737 5736 5735 5734 5732 5730 5729 5728 5725 5722 5720 5718 5714 5711 5707 5705 5703 5702 5702 5702 5702 5702 5701 5700 5698 5696 5695 5692 5691 5691 5689 5686 5686
5715 5729 5727 5722 5710 5701 5711 5689 5710 5722 5726 5732 5734 5735 5736 5738 5738 5737 5735 5732 5732 5731 5730 5727 5724 5721 5719 5717 5713 5708 5703 5699 5699 5699 5700 5700 5700 5700 5699 5698 5697 5695 5693 5691 5690 5690 5689 5687 5684
5722 5731 5725 5719 5708 5697 5701 5688 5698 5714 5714 5724 5730 5734 5735 5737 5737 5736 5736 5735 5733 5731 5729 5726 5723 5720 5718 5716 5713 5708 5703 5701 5699 5698 5698 5697 5697 5697 5697 5696 5695 5693 5692 5691 5690 5689 5688 5687 5685
5728 5720 5712 5702 5693 5680 5694 5685 5689 5703 5715 5723 5730 5732 5734 5735 5736 5736 5735 5733 5731 5729 5726 5724 5720 5717 5716 5714 5711 5708 5703 5700 5697 5695 5694 5694 5694 5694 5694 5694 5693 5692 5691 5690 5689 5688 5687 5687 5686
5714 5692 5672 5670 5665 5672 5693 5687 5692 5715 5725 5728 5729 5730 5733 5734 5733 5731 5730 5728 5727 5726 5724 5722 5719 5715 5714 5712 5709 5707 5704 5701 5697 5695 5693 5692 5691 5691 5692 5692 5691 5690 5690 5689 5688 5687 5686 5686 5685
5701 5690 5666 5658 5658 5668 5685 5682 5699 5722 5729 5731 5731 5730 5731 5730 5730 5730 5729 5728 5726 5725 5723 5720 5717 5714 5712 5710 5707 5706 5704 5701 5698 5696 5694 5692 5691 5691 5691 5691 5690 5689 5689 5688 5687 5686 5685 5685 5684
5694 5684 5686 5669 5667 5661 5670 5685 5702 5716 5718 5721 5722 5723 5724 5727 5729 5729 5728 5727 5725 5723 5722 5720 5716 5713 5710 5708 5706 5704 5702 5700 5697 5696 5694 5693 5691 5691 5690 5689 5688 5688 5687 5687 5686 5684 5683 5683 5682
5697 5688 5671 5662 5651 5647 5663 5672 5679 5695 5701 5710 5714 5716 5719 5723 5725 5726 5725 5724 5724 5722 5721 5719 5716 5712 5709 5707 5705 5704 5701 5700 5698 5695 5693 5692 5691 5691 5689 5688 5687 5686 5686 5685 5684 5683 5682 5681 5680
5681 5677 5667 5656 5653 5644 5644 5663 5696 5696 5701 5705 5710 5714 5716 5718 5720 5721 5721 5722 5721 5720 5718 5716 5713 5710 5707 5706 5704 5702 5700 5698 5696 5694 5692 5692 5691 5690 5689 5688 5687 5686 5684 5684 5682 5681 5680 5679 5678
5681 5673 5662 5648 5647 5646 5642 5659 5702 5701 5703 5704 5706 5710 5713 5715 5717 5718 5717 5716 5715 5714 5713 5713 5711 5708 5706 5704 5702 5700 5698 5696 5694 5692 5691 5691 5690 5689 5688 5688 5686 5685 5683 5682 5681 5679 5678 5677 5675